Weather History for Breckenridge, TX

Change the Weather History Date:

Tuesday, September 17, 2013

  Actual Average (KABI) Record (KABI)
Temperature  
Mean Temperature 80 °F 75 °F  
Max Temperature 87 °F 86 °F 100 °F (1997)
Min Temperature 72 °F 64 °F 43 °F (1903)
Degree Days  
Heating Degree Days 0 0  
Month to date heating degree days 0  
Since 1 July heating degree days 0  
Cooling Degree Days 14 10  
Month to date cooling degree days 217  
Year to date cooling degree days 2162  
Growing Degree Days 30 (Base 50)    
Moisture  
Dew Point 64 °F    
Average Humidity 60    
Maximum Humidity 79    
Minimum Humidity 37    
Precipitation  
Precipitation 0.00 in 0.07 in 1.77 in (1936)
Month to date precipitation 1.32  
Year to date precipitation 18.28  
Sea Level Pressure  
Sea Level Pressure 30.05 in    
Wind  
Wind Speed 3 mph (South)    
Max Wind Speed 9 mph    
Max Gust Speed -    
Visibility 10 miles    
Events Rain    
T = Trace of Precipitation, MM = Missing Value Source: NWS Daily Summary

Daily Weather History Graph

Daily Weather History Graph

Search for Another Location

Airport:

Trip Planner

Search our weather history database for the weather conditions in past years. The results will help you decide how hot, cold, wet, or windy it might be!

Date:

Astronomy

Sep. 17, 2013 Rise Set
Actual Time 7:20 AM CDT 7:38 PM CDT
Civil Twilight 6:56 AM CDT 8:03 PM CDT
Nautical Twilight 6:27 AM CDT 8:32 PM CDT
Astronomical Twilight 5:57 AM CDT 9:01 PM CDT
Moon 6:24 PM CDT (9/17) 5:21 AM CDT (9/17)
Length of Visible Light 13h 07m
Length of Day
12h 17m
Waxing Gibbous, 96% of the Moon is Illuminated
Sep 17
Waxing Gibbous
Sep 19
Full
Sep 26
Last Quarter
Oct 4
New
Oct 11
First Quarter

Hourly Weather History & Observations

Time (CDT) Temp. Heat Index Dew Point Humidity Pressure Visibility Wind Dir Wind Speed Gust Speed Precip Events Conditions
12:15 AM 80.4 °F 80.7 °F 57.4 °F 45% 30.08 in 10.0 mi SSW 5.8 mph - N/A   Scattered Clouds
12:35 AM 79.2 °F - 58.3 °F 49% 30.08 in 10.0 mi SSW 5.8 mph - N/A   Overcast
12:55 AM 78.6 °F - 61.5 °F 56% 30.08 in 10.0 mi Calm Calm - N/A   Overcast
1:15 AM 78.3 °F - 56.5 °F 47% 30.08 in 10.0 mi SSW 5.8 mph - N/A   Scattered Clouds
1:35 AM 75.6 °F - 58.8 °F 56% 30.08 in 10.0 mi SSW 3.5 mph - N/A   Clear
1:55 AM 76.1 °F - 57.9 °F 53% 30.08 in 10.0 mi Calm Calm - N/A   Clear
2:15 AM 75.6 °F - 58.1 °F 55% 30.08 in 10.0 mi Calm Calm - N/A   Clear
2:35 AM 75.0 °F - 57.7 °F 55% 30.08 in 10.0 mi South 4.6 mph - N/A   Clear
2:55 AM 74.7 °F - 58.1 °F 56% 30.07 in 10.0 mi SSW 5.8 mph - N/A   Clear
3:15 AM 73.2 °F - 59.5 °F 62% 30.07 in 10.0 mi SSW 5.8 mph - N/A   Clear
3:35 AM 73.6 °F - 59.2 °F 61% 30.07 in 10.0 mi SSW 5.8 mph - N/A   Clear
3:55 AM 74.1 °F - 59.2 °F 59% 30.07 in 10.0 mi SSW 4.6 mph - N/A   Clear
4:15 AM 73.9 °F - 59.7 °F 61% 30.07 in 10.0 mi WSW 4.6 mph - N/A   Clear
4:35 AM 72.9 °F - 61.5 °F 67% 30.07 in 10.0 mi SSW 6.9 mph - N/A   Clear
4:55 AM 73.4 °F - 63.5 °F 71% 30.07 in 10.0 mi SW 5.8 mph - N/A   Clear
5:15 AM 72.9 °F - 63.9 °F 73% 30.06 in 10.0 mi SW 5.8 mph - N/A   Clear
5:35 AM 72.7 °F - 64.4 °F 75% 30.06 in 10.0 mi WSW 4.6 mph - N/A   Clear
5:55 AM 72.5 °F - 65.1 °F 78% 30.07 in 10.0 mi SW 5.8 mph - N/A   Clear
6:15 AM 73.2 °F - 66.0 °F 78% 30.07 in 10.0 mi SSW 6.9 mph - N/A   Clear
6:55 AM 73.8 °F - 66.2 °F 77% 30.07 in 10.0 mi Calm Calm - N/A   Clear
7:15 AM 73.9 °F - 66.6 °F 78% 30.08 in 10.0 mi Calm Calm - N/A   Clear
7:35 AM 74.3 °F - 66.6 °F 77% 30.08 in 10.0 mi WSW 3.5 mph - N/A   Clear
7:55 AM 74.1 °F - 67.1 °F 79% 30.08 in 10.0 mi Calm Calm - N/A   Mostly Cloudy
8:15 AM 74.5 °F - 67.1 °F 78% 30.08 in 10.0 mi Calm Calm - N/A   Scattered Clouds
8:35 AM 74.5 °F - 67.6 °F 79% 30.09 in 10.0 mi Calm Calm - N/A   Clear
8:55 AM 75.6 °F - 67.6 °F 76% 30.10 in 10.0 mi Calm Calm - N/A   Scattered Clouds
9:15 AM 76.5 °F - 67.1 °F 73% 30.10 in 10.0 mi Calm Calm - N/A   Mostly Cloudy
9:35 AM 76.3 °F - 67.8 °F 75% 30.10 in 10.0 mi Calm Calm - N/A   Overcast
9:55 AM 77.0 °F - 67.8 °F 73% 30.10 in 10.0 mi Calm Calm - N/A   Light Drizzle
10:15 AM 77.4 °F - 67.1 °F 71% 30.10 in 10.0 mi Calm Calm - N/A   Scattered Clouds
10:35 AM 78.1 °F - 66.2 °F 67% 30.11 in 10.0 mi Calm Calm - N/A   Clear
10:55 AM 78.4 °F - 66.6 °F 67% 30.11 in 10.0 mi Calm Calm - N/A   Mostly Cloudy
11:15 AM 78.6 °F - 66.6 °F 66% 30.11 in 10.0 mi Calm Calm - N/A Rain Light Rain
11:35 AM 79.0 °F - 67.8 °F 69% 30.11 in 10.0 mi Calm Calm - N/A Rain Light Rain
11:55 AM 79.2 °F - 67.6 °F 68% 30.11 in 10.0 mi Calm Calm - N/A   Light Drizzle
12:15 PM 79.9 °F - 67.8 °F 66% 30.10 in 10.0 mi Calm Calm - N/A   Scattered Clouds
12:35 PM 80.8 °F 83.5 °F 68.0 °F 65% 30.09 in 10.0 mi Calm Calm - N/A   Scattered Clouds
12:55 PM 81.1 °F 83.9 °F 68.0 °F 64% 30.09 in 10.0 mi Calm Calm - N/A   Mostly Cloudy
1:15 PM 82.6 °F 85.3 °F 67.3 °F 60% 30.08 in 10.0 mi Calm Calm - N/A   Scattered Clouds
1:35 PM 82.8 °F 85.3 °F 67.1 °F 59% 30.08 in 10.0 mi Calm Calm - N/A   Clear
1:55 PM 82.4 °F 85.0 °F 67.3 °F 60% 30.07 in 10.0 mi Calm Calm - N/A Rain Light Rain
2:15 PM 82.4 °F 85.4 °F 68.0 °F 62% 30.06 in 10.0 mi Calm Calm - N/A Rain Light Rain
2:35 PM 82.8 °F 85.8 °F 68.2 °F 61% 30.05 in 10.0 mi Calm Calm - N/A   Mostly Cloudy
2:55 PM 84.4 °F 87.1 °F 66.9 °F 56% 30.04 in 10.0 mi Calm Calm - N/A   Scattered Clouds
3:15 PM 86.0 °F 87.9 °F 65.3 °F 50% 30.03 in 10.0 mi Calm Calm - N/A   Scattered Clouds
3:35 PM 86.9 °F 86.5 °F 59.5 °F 40% 30.02 in 10.0 mi SE 5.8 mph - N/A   Scattered Clouds
3:55 PM 86.9 °F 86.7 °F 60.3 °F 41% 30.01 in 10.0 mi Calm Calm - N/A   Clear
4:15 PM 86.9 °F 87.0 °F 61.2 °F 42% 30.00 in 10.0 mi South 5.8 mph - N/A   Clear
4:35 PM 87.8 °F 87.9 °F 61.2 °F 41% 29.99 in 10.0 mi SSE 6.9 mph - N/A   Scattered Clouds
4:55 PM 87.8 °F 86.9 °F 58.5 °F 37% 29.99 in 10.0 mi South 9.2 mph - N/A   Scattered Clouds
5:15 PM 87.4 °F 86.9 °F 59.4 °F 39% 29.99 in 10.0 mi South 6.9 mph - N/A   Clear
5:35 PM 87.4 °F 87.2 °F 60.1 °F 40% 29.98 in 10.0 mi SSE 5.8 mph - N/A   Clear
5:55 PM 87.3 °F 87.0 °F 60.4 °F 40% 29.98 in 10.0 mi Calm Calm - N/A   Clear
6:15 PM 87.3 °F 87.0 °F 60.1 °F 40% 29.97 in 10.0 mi ESE 3.5 mph - N/A   Clear
6:35 PM 86.9 °F 86.7 °F 60.8 °F 41% 29.98 in 10.0 mi SSE 3.5 mph - N/A   Clear
6:55 PM 86.4 °F 86.5 °F 61.7 °F 43% 29.98 in 10.0 mi Calm Calm - N/A   Clear
7:15 PM 85.6 °F 85.9 °F 61.7 °F 44% 29.98 in 10.0 mi South 4.6 mph - N/A   Clear
7:35 PM 83.5 °F 85.1 °F 64.8 °F 53% 29.98 in 10.0 mi Calm Calm - N/A   Clear
7:55 PM 83.3 °F 84.8 °F 64.6 °F 53% 29.98 in 10.0 mi Calm Calm - N/A   Clear
8:15 PM 83.3 °F 84.8 °F 64.6 °F 53% 29.99 in 10.0 mi Calm Calm - N/A   Clear
8:35 PM 82.9 °F 84.6 °F 64.8 °F 54% 29.99 in 10.0 mi Calm Calm - N/A   Clear
8:55 PM 82.2 °F 84.6 °F 66.4 °F 59% 30.01 in 10.0 mi Calm Calm - N/A   Light Drizzle
9:15 PM 81.0 °F 83.3 °F 66.9 °F 62% 30.01 in 10.0 mi Calm Calm - N/A Rain Light Rain
9:35 PM 79.7 °F - 68.2 °F 68% 30.01 in 10.0 mi Calm Calm - N/A   Clear
9:55 PM 79.9 °F - 66.7 °F 64% 30.02 in 10.0 mi Calm Calm - N/A   Clear
10:15 PM 80.6 °F 82.5 °F 65.5 °F 60% 30.02 in 10.0 mi Calm Calm - N/A   Clear
10:35 PM 80.2 °F 82.3 °F 66.2 °F 62% 30.02 in 10.0 mi Calm Calm - N/A   Clear
10:55 PM 80.6 °F 82.4 °F 64.9 °F 59% 30.02 in 10.0 mi Calm Calm - N/A   Clear
11:15 PM 80.2 °F 82.0 °F 64.6 °F 59% 30.02 in 10.0 mi SSE 8.1 mph - N/A   Clear
11:35 PM 79.3 °F - 64.6 °F 60% 30.01 in 10.0 mi SSE 8.1 mph - N/A   Clear
11:55 PM 79.2 °F - 64.6 °F 61% 30.01 in 10.0 mi SSE 6.9 mph - N/A   Clear